      9  01 26.24  +53 34.1  1.791  1.415   19.6/ 13   52.1  11.8  283/3.31  +34

.1  224.7

     10  01 26.72  +53 53.1  1.802  1.434   19.3/ 12   52.6  11.8  282/3.27  +34

.6  224.5

NAKANO

         **** Don't distribute anyone except personal use only ****

                (C) Copyright 2004 OAA/ComputingSection

write mail from CFAD0::NAKANO on 2004-05-11 06:52:40(JST).

 ◎C/2004 F4の軌道と予報位置です



 上尾の門田健一氏は,4月24日朝,この彗星の観測に成功しました.

氏の CCD全光度は,3.5等です.今朝,各地で取られた画像では,長い

尾が伸びているようです.横にあるC/2002 T7とともにながめてくださ

い.なお,軌道には,摂動が入っていますが,これは,観測にWeighting

できるプログラムが摂動用しかないためです.



    C/2004 F4 (Bradfield)                                                 

Epoch 2004 Apr. 25.0 TT = JDT 2453120.5  

T 2004 Apr. 17.09387 TT                                 Nakano

q   0.1681334            (2000.0)            P               Q

                   Peri.  332.80765     -0.79283901     -0.06251957

                   Node   222.79556     -0.25334598     -0.87088764

e   1.0            Incl.   63.16390     -0.55427621     +0.48748951

From 69 observations 2004 Mar. 23-Apr. 24, weighting mean residual 1".73.



 28h JST R.A.(2000) Decl.    Delta   r      Mot./PA   Elong.    P   Mag.   PA/Ta

il Nautical twilight

           h  m       o  ,                    ,     o    o      o    m1      o o

     h o    A o 

Apr. 25  01 02.30  +26 57.5  0.954  0.370   92.8/348   21.5   87.2   4.4  305/11

.7   +9.8  243.8

     26  01 00.85  +28 28.3  0.980  0.399   83.8/351   23.1   82.2   4.8  305/11

.1  +11.4  243.0

     27  00 59.81  +29 51.1  1.005  0.428   76.3/353   24.6   77.9   5.1  305/10

.6  +12.8  242.3

     28  00 59.10  +31 06.8  1.031  0.457   70.0/355   25.9   74.1   5.5  305/10

.0  +14.1  241.7

     29  00 58.67  +32 16.6  1.057  0.486   64.6/358   27.1   70.8   5.8  305/9.

55  +15.3  241.0

     30  00 58.46  +33 21.1  1.082  0.514   60.0/360   28.2   67.9   6.1  305/9.

10  +16.4  240.4

May   1  00 58.45  +34 21.2  1.107  0.541   56.1/  2   29.2   65.2   6.4  305/8.

67  +17.4  239.8

      2  00 58.59  +35 17.3  1.131  0.569   52.7/  4   30.1   62.9   6.6  304/8.

29  +18.3  239.3

      3  00 58.87  +36 09.9  1.155  0.595   49.7/  5   31.0   60.7   6.9  304/7.

93  +19.2  238.7

      4  00 59.26  +36 59.4  1.179  0.622   47.1/  7   31.8   58.8   7.1  303/7.

60  +20.0  238.2

      5  00 59.74  +37 46.2  1.202  0.648   44.8/  8   32.6   57.0   7.3  303/7.

30  +20.8  237.7

      6  01 00.30  +38 30.5  1.225  0.674   42.8/ 10   33.4   55.4   7.5  303/7.

01  +21.5  237.3

      7  01 00.93  +39 12.7  1.248  0.700   41.0/ 11   34.1   54.0   7.7  302/6.

76  +22.3  236.8

      8  01 01.62  +39 52.9  1.270  0.725   39.3/ 12   34.8   52.6   7.9  302/6.

51  +22.9  236.4

      9  01 02.35  +40 31.3  1.291  0.750   37.9/ 13   35.4   51.3   8.1  301/6.

29  +23.6  236.0

     10  01 03.11  +41 08.2  1.313  0.774   36.5/ 14   36.1   50.2   8.3  301/6.

08  +24.2  235.6

     11  01 03.91  +41 43.5  1.333  0.799   35.3/ 15   36.7   49.1   8.4  300/5.

89  +24.8  235.2

     12  01 04.74  +42 17.6  1.354  0.823   34.1/ 16   37.3   48.1   8.6  300/5.

71  +25.4  234.8

     13  01 05.58  +42 50.4  1.374  0.846   33.1/ 16   37.9   47.1   8.8  299/5.

54  +26.0  234.4

     14  01 06.44  +43 22.2  1.394  0.870   32.1/ 17   38.4   46.2   8.9  298/5.

39  +26.6  234.1

     15  01 07.31  +43 52.9  1.413  0.893   31.2/ 18   39.0   45.4   9.1  298/5.

24  +27.1  233.7

     16  01 08.19  +44 22.7  1.432  0.916   30.4/ 18   39.5   44.6   9.2  297/5.

10  +27.7  233.4

     17  01 09.07  +44 51.6  1.451  0.939   29.6/ 18   40.1   43.9   9.3  297/4.

97  +28.2  233.1

     18  01 09.95  +45 19.7  1.469  0.962   28.9/ 19   40.6   43.2   9.5  296/4.

85  +28.7  232.8

     19  01 10.84  +45 47.1  1.487  0.984   28.2/ 19   41.2   42.6   9.6  296/4.

73  +29.3  232.4

     20  01 11.71  +46 13.8  1.504  1.006   27.6/ 19   41.7   42.0   9.7  295/4.

63  +29.8  232.1

     21  01 12.59  +46 39.9  1.521  1.028   27.0/ 19   42.2   41.4   9.8  294/4.

52  +30.3  231.8

     22  01 13.45  +47 05.4  1.538  1.050   26.4/ 19   42.7   40.8   9.9  294/4.

43  +30.8  231.5

     23  01 14.31  +47 30.3  1.555  1.072   25.8/ 19   43.2   40.3  10.1  293/4.

34  +31.3  231.2

     24  01 15.15  +47 54.7  1.571  1.093   25.3/ 19   43.8   39.8  10.2  293/4.

25  +31.8  230.9

     25  01 15.98  +48 18.6  1.587  1.115   24.8/ 19   44.3   39.4  10.3  292/4.

17  +32.4  230.7

     26  01 16.80  +48 42.0  1.603  1.136   24.3/ 19   44.8   38.9  10.4  292/4.

09  +32.9  230.4

     27  01 17.60  +49 05.0  1.618  1.157   23.9/ 19   45.3   38.5  10.5  291/4.

01  +33.4  230.1

     28  01 18.39  +49 27.7  1.633  1.178   23.5/ 18   45.8   38.1  10.6  290/3.

94  +33.9  229.8

     29  01 19.16  +49 49.9  1.648  1.198   23.1/ 18   46.3   37.7  10.7  290/3.

88  +34.4  229.5

     30  01 19.90  +50 11.8  1.662  1.219   22.7/ 18   46.8   37.4  10.8  289/3.

81  +34.9  229.2

     31  01 20.63  +50 33.4  1.677  1.239   22.3/ 18   47.4   37.0  10.9  288/3.

75  +35.4  228.9

June  1  01 21.34  +50 54.6  1.690  1.260   21.9/ 17   47.9   36.7  10.9  288/3.

69  +35.9  228.7

NAKANO

         **** Don't distribute anyone except personal use only ****

                (C) Copyright 2004 OAA/ComputingSection

write mail from CFAD0::NAKANO on 2004-04-25 01:32:34(JST).

 

    C/2004 F4 (Bradfield)                                                 

T 2004 Apr. 17.08495 TT                                 Nakano

q   0.1682855            (2000.0)            P               Q

                   Peri.  332.62421     -0.79240223     -0.06518944

                   Node   222.80786     -0.25080687     -0.87152504

e   1.0            Incl.   63.19179     -0.55605272     +0.48599839

From 62 observations 2004 Mar. 23-Apr. 20.



NAKANO

         **** Don't distribute anyone except personal use only ****

                (C) Copyright 2004 OAA/ComputingSection

write mail from CFAD0::NAKANO on 2004-04-24 06:00:27(JST).

 



◎C/2004 F4の軌道と予報位置です



 あえてブラッドフィ−ルドの発見観測を含めて軌道改良しました.

そろそろ見えてくるでしょう.残差は,角度の分です.なお,30゚ほど

東にC/2002 T7が見えています.



    C/2004 F4 (Bradfield)                                                 

T 2004 Apr. 17.08495 TT                                 Nakano

q   0.1682855            (2000.0)            P               Q

                   Peri.  332.62421     -0.79240223     -0.06518944

                   Node   222.80786     -0.25080687     -0.87152504

e   1.0            Incl.   63.19179     -0.55605272     +0.48599839

From 62 observations 2004 Mar. 23-Apr. 20.



C/2004 F4(明け方の空)       地心   日心  日々運動量  太陽  位相角      尾の位

置角  薄暮開始時 

 28h JST 赤経 (2000.0) 赤緯   距離   距離   と位置角   離角    β   光度  尾の長

さ  φ+35゚  A   

           h  m       。  ,      AU     AU     ,     。    。      。    m1      。 。

      h。      。 

Apr. 20  01 19.47  +16 30.9  0.844  0.226  170.2/334    9.9  130.2   2.2  297/12

.1   -2.0  248.0

     21  01 14.25  +19 03.9  0.861  0.253  150.2/337   12.8  118.2   2.7  301/13

.0   +1.0  247.1

     22  01 10.06  +21 22.1  0.881  0.282  132.3/340   15.4  108.3   3.2  303/13

.1   +3.7  246.3

     23  01 06.76  +23 26.2  0.904  0.311  116.9/343   17.7  100.0   3.7  304/12

.8   +6.0  245.4

     24  01 04.20  +25 17.6  0.928  0.341  103.9/345   19.8   93.2   4.2  305/12

.3   +8.0  244.6

     25  01 02.23  +26 58.2  0.953  0.370   93.2/348   21.6   87.3   4.6  305/11

.7   +9.8  243.8

     26  01 00.77  +28 29.3  0.978  0.400   84.2/351   23.2   82.4   5.0  305/11

.2  +11.4  243.0

     27  00 59.71  +29 52.3  1.004  0.429   76.6/353   24.6   78.0   5.3  305/10

.6  +12.9  242.3

     28  00 58.98  +31 08.3  1.030  0.457   70.3/355   25.9   74.3   5.7  305/10

.1  +14.2  241.6

     29  00 58.53  +32 18.3  1.055  0.486   64.9/358   27.1   71.0   6.0  305/9.

58  +15.4  241.0

     30  00 58.31  +33 23.2  1.080  0.514   60.3/360   28.2   68.0   6.3  305/9.

12  +16.5  240.4

May   1  00 58.28  +34 23.4  1.105  0.542   56.3/  2   29.2   65.4   6.6  305/8.

70  +17.5  239.8

      2  00 58.41  +35 19.7  1.129  0.569   52.9/  3   30.2   63.0   6.8  304/8.

31  +18.4  239.2

      3  00 58.67  +36 12.6  1.153  0.596   49.9/  5   31.1   60.9   7.1  304/7.

95  +19.3  238.7

      4  00 59.05  +37 02.3  1.177  0.622   47.3/  7   31.9   58.9   7.3  303/7.

62  +20.1  238.2

      5  00 59.52  +37 49.3  1.200  0.648   45.0/  8   32.7   57.2   7.5  303/7.

32  +20.9  237.7

      6  01 00.07  +38 33.8  1.223  0.674   43.0/ 10   33.4   55.6   7.7  303/7.

04  +21.6  237.2

      7  01 00.69  +39 16.2  1.246  0.700   41.1/ 11   34.2   54.1   7.9  302/6.

78  +22.3  236.8

      8  01 01.36  +39 56.5  1.268  0.725   39.5/ 12   34.8   52.7   8.1  302/6.

54  +23.0  236.4

      9  01 02.08  +40 35.2  1.289  0.750   38.0/ 13   35.5   51.4   8.3  301/6.

31  +23.7  235.9

     10  01 02.84  +41 12.1  1.311  0.774   36.6/ 14   36.1   50.3   8.5  301/6.

10  +24.3  235.5

     11  01 03.63  +41 47.7  1.331  0.799   35.4/ 15   36.8   49.2   8.6  300/5.

91  +24.9  235.1

     12  01 04.44  +42 21.9  1.352  0.823   34.3/ 16   37.4   48.2   8.8  300/5.

73  +25.5  234.8

     13  01 05.28  +42 54.9  1.372  0.846   33.2/ 16   37.9   47.2   9.0  299/5.

56  +26.1  234.4

     14  01 06.13  +43 26.8  1.392  0.870   32.2/ 17   38.5   46.3   9.1  298/5.

40  +26.6  234.0

     15  01 06.99  +43 57.6  1.411  0.893   31.3/ 17   39.1   45.5   9.3  298/5.

26  +27.2  233.7

     16  01 07.86  +44 27.5  1.430  0.916   30.5/ 18   39.6   44.7   9.4  297/5.

12  +27.7  233.4

     17  01 08.74  +44 56.6  1.448  0.939   29.7/ 18   40.2   44.0   9.5  297/4.

99  +28.3  233.0

     18  01 09.61  +45 24.8  1.467  0.962   29.0/ 18   40.7   43.3   9.7  296/4.

86  +28.8  232.7

     19  01 10.49  +45 52.4  1.485  0.984   28.3/ 19   41.2   42.7   9.8  296/4.

75  +29.4  232.4

     20  01 11.36  +46 19.2  1.502  1.007   27.7/ 19   41.8   42.1   9.9  295/4.

64  +29.9  232.1

     21  01 12.22  +46 45.4  1.519  1.029   27.0/ 19   42.3   41.5  10.0  294/4.

54  +30.4  231.8

